EW3662 Weather Reports


Display with metric or nautical units.
time (UTC)temp
F
wind
direction
speed
MPH
gust
MPH
rain 1hr
in
rain 24hr
in
rain mn
in
humidity
%
barometer
mb
20260506041818 33 297 0.0 0.0 0.01 0.85 0.85 93 1017.1
20260506041319 33 296 0.0 0.0 0.01 0.85 0.85 93 1016.9
20260506040817 33 297 0.0 0.0 0.01 0.85 0.85 93 1016.8
20260506040318 33 297 0.0 0.0 0.02 0.85 0.85 93 1016.7
20260506035816 33 297 0.0 0.0 0.02 0.85 0.85 93 1016.7
20260506035316 33 297 0.0 0.0 0.01 0.84 0.84 93 1016.6
20260506034815 33 297 0.0 0.0 0.01 0.84 0.84 93 1016.6
20260506034316 33 297 0.0 0.0 0.01 0.84 0.84 93 1016.6
20260506033816 33 297 0.0 0.0 0.02 0.84 0.84 93 1016.5
20260506033315 33 297 0.0 2.0 0.02 0.84 0.84 93 1016.5
20260506032816 33 297 0.0 2.0 0.02 0.84 0.84 93 1016.5
20260506032314 33 297 1.0 3.0 0.02 0.84 0.84 93 1016.5
20260506032045 33 296 1.0 3.0 0.02 0.84 0.84 93 1016.2
20260506031311 33 296 1.0 4.0 0.03 0.84 0.84 93 1016.4
20260506030813 33 297 2.0 5.0 0.03 0.84 0.84 93 1016.4
20260506030312 33 297 3.0 6.0 0.02 0.83 0.83 93 1016.4
20260506025813 33 297 4.0 6.0 0.02 0.83 0.83 93 1016.2
20260506025312 33 0 3.0 6.0 0.03 0.83 0.83 93 1016.1
20260506024811 33 0 3.0 5.0 0.03 0.83 0.83 93 1015.9
20260506024311 33 0 3.0 6.0 0.03 0.83 0.83 93 1015.7
20260506023811 33 0 4.0 6.0 0.02 0.82 0.82 93 1015.8
20260506023312 33 291 3.0 5.0 0.03 0.82 0.82 93 1015.6
20260506022811 33 0 2.0 5.0 0.03 0.82 0.82 94 1015.6
20260506022311 33 291 1.0 5.0 0.03 0.82 0.82 93 1015.4
20260506021811 33 0 1.0 3.0 0.03 0.82 0.82 93 1015.4
20260506021312 33 291 1.0 4.0 0.02 0.81 0.81 93 1015.3
20260506020811 33 290 2.0 4.0 0.02 0.81 0.81 93 1015.2
20260506020313 33 0 2.0 4.0 0.02 0.81 0.81 93 1015.2
20260506015811 33 0 2.0 4.0 0.02 0.81 0.81 93 1015.2
20260506015311 33 292 2.0 4.0 0.01 0.80 0.81 93 1015.2
20260506014809 33 0 1.0 4.0 0.01 0.80 0.80 93 1015.1
20260506014309 32 291 2.0 4.0 0.01 0.80 0.80 93 1015.1
20260506013809 32 290 2.0 4.0 0.01 0.80 0.80 93 1015.1
20260506013310 32 292 1.0 3.0 0.00 0.79 0.80 93 1014.9
20260506012809 32 0 0.0 2.0 0.00 0.79 0.79 93 1014.7
20260506012311 32 292 0.0 3.0 0.00 0.79 0.79 93 1014.6
20260506011809 32 291 1.0 3.0 0.00 0.79 0.79 93 1014.6
20260506011307 32 0 1.0 4.0 0.00 0.79 0.79 93 1014.6
20260506010808 32 0 0.0 4.0 0.00 0.79 0.79 93 1014.6
20260506010307 32 0 0.0 0.0 0.00 0.79 0.79 93 1014.6
20260506005808 32 291 0.0 3.0 0.01 0.79 0.79 93 1014.7
20260506005308 32 0 1.0 4.0 0.01 0.79 0.79 93 1014.7
20260506004809 32 0 1.0 4.0 0.01 0.79 0.79 93 1014.6
20260506004310 32 292 1.0 4.0 0.01 0.80 0.79 93 1014.6
20260506003807 32 292 2.0 4.0 0.01 0.80 0.79 93 1014.6
20260506003308 32 0 2.0 4.0 0.01 0.80 0.79 93 1014.6
20260506002808 32 0 2.0 5.0 0.01 0.81 0.79 93 1014.6
20260506002307 32 292 2.0 5.0 0.01 0.81 0.79 93 1014.6
20260506001809 32 0 2.0 5.0 0.01 0.82 0.79 93 1014.6
20260506001307 32 293 2.0 5.0 0.01 0.82 0.79 93 1014.5
20260506000806 32 302 2.0 5.0 0.01 0.83 0.79 93 1014.5
20260506000309 32 0 2.0 5.0 0.01 0.83 0.79 93 1014.4
20260505235808 32 302 0.0 4.0 0.00 0.82 0.78 93 1014.4
20260505235307 32 0 0.0 3.0 0.00 0.82 0.78 93 1014.2
20260505235037 32 0 0.0 3.0 0.01 0.82 0.78 93 1014.2
20260505234537 32 301 0.0 3.0 0.01 0.82 0.78 93 1014.3
20260505233805 32 0 1.0 3.0 0.01 0.82 0.78 93 1014.3
20260505233305 32 0 1.0 4.0 0.02 0.82 0.78 93 1014.3
20260505232805 32 298 1.0 4.0 0.02 0.82 0.78 92 1014.4
20260505232305 33 0 2.0 3.0 0.02 0.82 0.78 92 1014.4
20260505231806 33 0 2.0 3.0 0.03 0.82 0.78 92 1014.4
20260505231306 33 0 1.0 4.0 0.03 0.82 0.78 92 1014.4
20260505230806 33 0 1.0 4.0 0.03 0.82 0.78 92 1014.4
20260505230305 33 0 1.0 3.0 0.04 0.82 0.78 92 1014.4
20260505225804 33 0 1.0 3.0 0.05 0.82 0.78 92 1014.4
20260505225306 33 292 1.0 2.0 0.05 0.82 0.78 92 1014.4
20260505224804 33 0 0.0 3.0 0.05 0.81 0.77 92 1014.3
20260505224536 33 0 1.0 3.0 0.05 0.81 0.77 92 1014.2
20260505223804 33 294 1.0 3.0 0.06 0.81 0.77 92 1014.2
20260505223303 34 0 2.0 3.0 0.05 0.80 0.76 92 1014.3
20260505223034 34 288 2.0 3.0 0.05 0.80 0.76 92 1014.3
20260505222305 34 0 1.0 3.0 0.06 0.80 0.76 92 1014.3
20260505221805 34 297 1.0 4.0 0.05 0.79 0.75 92 1014.2
20260505221303 34 0 2.0 6.0 0.06 0.79 0.75 92 1014.1
20260505220805 34 0 2.0 6.0 0.06 0.79 0.75 92 1013.9
20260505220257 34 0 2.0 5.0 0.06 0.78 0.74 92 1013.9
20260505215758 35 292 2.0 5.0 0.06 0.77 0.74 92 1014.3
20260505215257 35 313 3.0 6.0 0.06 0.77 0.73 92 1014.2
20260505214757 35 348 2.0 6.0 0.06 0.76 0.72 93 1014.1
20260505214530 35 0 2.0 6.0 0.06 0.76 0.72 93 1014.2
20260505213803 34 295 2.0 5.0 0.07 0.75 0.71 92 1014.1
20260505213757 34 0 2.0 6.0 0.06 0.75 0.72 92 1014.1
20260505212758 34 297 2.0 5.0 0.07 0.75 0.71 92 1014.1
20260505212258 34 0 2.0 6.0 0.06 0.74 0.70 92 1014.1
20260505211757 34 0 2.0 6.0 0.07 0.74 0.70 92 1014.1
20260505211258 34 322 2.0 5.0 0.06 0.73 0.69 92 1014.2
20260505210758 34 0 2.0 5.0 0.07 0.73 0.69 92 1014.3
20260505210534 34 0 1.0 3.0 0.06 0.71 0.67 91 1014.3
20260505210258 34 0 1.0 5.0 0.06 0.72 0.68 92 1014.3
20260505205756 34 0 1.0 5.0 0.05 0.71 0.67 91 1014.3
20260505204755 35 340 1.0 4.0 0.05 0.70 0.66 91 1014.2
20260505204254 35 0 1.0 4.0 0.05 0.70 0.66 91 1014.4
20260505203757 35 0 1.0 4.0 0.04 0.69 0.65 91 1014.5
20260505203255 35 340 1.0 4.0 0.03 0.68 0.65 91 1014.5
20260505202757 35 0 1.0 7.0 0.04 0.68 0.64 91 1014.7
20260505202256 35 0 2.0 9.0 0.04 0.68 0.64 91 1014.7
20260505201757 36 19 2.0 10.0 0.03 0.67 0.63 91 1014.9
20260505201527 36 0 2.0 10.0 0.03 0.67 0.63 91 1014.9
20260505200757 36 13 3.0 10.0 0.02 0.66 0.62 91 1014.9
20260505200525 36 0 4.0 11.0 0.03 0.66 0.62 91 1014.7
20260505195754 36 51 4.0 11.0 0.03 0.66 0.62 91 1014.9
20260505195253 36 0 6.0 15.0 0.02 0.65 0.61 91 1014.9
20260505194755 36 0 7.0 15.0 0.03 0.65 0.61 90 1014.9
20260505194251 36 24 5.0 12.0 0.03 0.65 0.61 91 1014.9
20260505194023 36 340 4.0 14.0 0.04 0.65 0.61 91 1014.9
20260505193251 36 24 7.0 18.0 0.04 0.65 0.61 91 1014.9
20260505192751 36 25 8.0 18.0 0.04 0.64 0.60 91 1014.9
20260505192528 35 32 8.0 18.0 0.04 0.64 0.60 91 1014.9
20260505192251 36 0 8.0 18.0 0.04 0.64 0.60 91 1014.9
20260505191523 35 33 7.0 16.0 0.05 0.64 0.60 91 1014.7
20260505190752 36 0 8.0 15.0 0.05 0.64 0.60 90 1014.9
20260505190253 36 0 5.0 14.0 0.04 0.63 0.59 91 1015.1
20260505185752 36 0 4.0 14.0 0.04 0.63 0.59 91 1015.1
20260505185251 36 0 4.0 8.0 0.05 0.63 0.59 90 1015.1
20260505184752 37 0 5.0 14.0 0.04 0.62 0.58 89 1015.1
20260505184252 38 36 5.0 14.0 0.04 0.62 0.58 89 1014.9
20260505183750 38 29 3.0 9.0 0.03 0.61 0.57 91 1015.0
20260505183250 38 0 1.0 6.0 0.03 0.61 0.57 91 1015.0
20260505182748 38 0 1.0 5.0 0.02 0.60 0.56 91 1015.0
20260505182248 38 0 1.0 4.0 0.02 0.60 0.56 92 1015.0
20260505181747 38 0 1.0 3.0 0.02 0.60 0.56 91 1015.1
20260505181519 38 0 0.0 2.0 0.02 0.59 0.55 91 1015.2
20260505180748 38 0 0.0 2.0 0.02 0.59 0.55 91 1015.2
20260505180247 38 0 1.0 2.0 0.02 0.59 0.55 91 1015.2
20260505175748 38 0 1.0 2.0 0.02 0.59 0.55 92 1015.2
20260505175248 38 346 0.0 2.0 0.01 0.58 0.54 92 1015.2
20260505174748 38 0 0.0 2.0 0.01 0.58 0.54 92 1015.2
20260505174247 38 0 0.0 0.0 0.01 0.58 0.54 92 1015.2
20260505173745 37 254 0.0 1.0 0.02 0.58 0.54 91 1015.2
20260505173245 37 0 0.0 2.0 0.02 0.58 0.54 91 1015.3
20260505172746 37 255 1.0 2.0 0.02 0.58 0.54 91 1015.6
20260505172244 37 0 0.0 2.0 0.02 0.58 0.54 92 1015.8
20260505171745 37 196 0.0 2.0 0.02 0.58 0.54 92 1015.7
20260505171243 37 0 0.0 0.0 0.02 0.57 0.53 92 1015.7
20260505171013 37 0 0.0 0.0 0.02 0.57 0.53 91 1015.6
20260505170243 36 0 0.0 0.0 0.02 0.57 0.53 92 1015.7
20260505165744 36 0 0.0 1.0 0.03 0.57 0.53 92 1015.6
20260505165243 36 0 0.0 1.0 0.03 0.57 0.53 92 1015.6
20260505164744 36 0 0.0 2.0 0.04 0.57 0.53 92 1015.6
20260505164514 36 0 0.0 2.0 0.04 0.57 0.53 92 1015.6
20260505163743 36 0 0.0 0.0 0.04 0.56 0.52 93 1015.6
20260505163244 36 0 0.0 1.0 0.05 0.56 0.52 93 1015.4
20260505162741 36 0 0.0 1.0 0.06 0.56 0.52 93 1015.4
20260505162243 36 0 0.0 1.0 0.06 0.56 0.52 93 1015.6
20260505161741 35 194 0.0 1.0 0.07 0.56 0.52 93 1015.7
20260505161238 35 0 0.0 2.0 0.07 0.55 0.51 93 1015.8
20260505160739 35 0 0.0 2.0 0.08 0.55 0.51 93 1015.9
20260505160238 35 0 0.0 1.0 0.08 0.55 0.51 93 1015.9
20260505153237 34 0 0.0 1.0 0.08 0.51 0.47 93 1015.9
20260505153009 34 0 0.0 1.0 0.08 0.50 0.47 93 1015.9
20260505152238 34 0 0.0 1.0 0.09 0.50 0.46 93 1015.9
20260505151737 33 0 0.0 1.0 0.09 0.49 0.45 93 1015.9
20260505151237 33 0 0.0 1.0 0.08 0.48 0.44 93 1015.9
20260505150737 33 0 0.0 2.0 0.07 0.47 0.44 93 1016.0
20260505150512 33 0 0.0 2.0 0.07 0.47 0.43 93 1016.0
20260505140238 33 287 0.0 2.0 0.02 0.40 0.36 92 1016.0
20260505130238 34 0 1.0 2.0 0.05 0.38 0.34 92 1015.7
20260505124744 34 284 1.0 2.0 0.04 0.36 0.32 92 1015.3
20260505124739 34 0 1.0 2.0 0.05 0.37 0.33 92 1015.4
20260505124008 34 0 0.0 2.0 0.04 0.36 0.32 91 1015.3
20260505123237 34 284 0.0 2.0 0.03 0.35 0.31 92 1015.2
20260505122737 34 284 0.0 2.0 0.04 0.35 0.31 91 1015.2
20260505122240 34 284 0.0 2.0 0.03 0.34 0.30 91 1015.2
20260505121739 34 285 1.0 2.0 0.03 0.34 0.30 91 1015.1
20260505121510 34 0 2.0 3.0 0.03 0.34 0.30 91 1015.2
20260505120736 35 0 2.0 3.0 0.02 0.33 0.30 91 1015.2
20260505120237 35 0 2.0 3.0 0.02 0.33 0.29 91 1015.2
20260505120007 35 0 1.0 3.0 0.02 0.33 0.29 91 1015.2
20260505115235 35 0 1.0 2.0 0.02 0.33 0.29 91 1015.1
20260505114743 35 0 1.0 3.0 0.02 0.32 0.28 91 1015.0
20260505114737 35 0 1.0 2.0 0.01 0.32 0.28 91 1015.0
20260505113734 35 287 2.0 4.0 0.03 0.32 0.28 91 1015.0
20260505113235 35 0 1.0 4.0 0.03 0.31 0.28 91 1014.9
20260505112733 35 296 1.0 3.0 0.03 0.31 0.27 91 1014.7
20260505112502 35 0 1.0 3.0 0.04 0.31 0.27 91 1014.7
20260505111731 35 0 2.0 4.0 0.05 0.31 0.27 91 1014.9
20260505111233 35 0 2.0 5.0 0.06 0.31 0.27 91 1014.6
20260505110732 35 0 2.0 6.0 0.07 0.31 0.27 91 1014.5
20260505110233 35 0 2.0 6.0 0.08 0.31 0.27 91 1014.4
20260505101954 36 40 2.0 11.0 0.07 0.26 0.22 90 1014.3
20260505101220 36 32 3.0 8.0 0.07 0.25 0.21 90 1014.3
20260505100718 37 0 3.0 8.0 0.06 0.24 0.20 90 1014.2
20260505100215 37 0 3.0 9.0 0.06 0.23 0.19 89 1014.1
20260505095717 37 0 3.0 11.0 0.06 0.22 0.19 90 1013.9
20260505095216 37 339 2.0 11.0 0.06 0.22 0.18 90 1014.1
20260505094716 37 0 3.0 10.0 0.07 0.22 0.18 89 1014.2
20260505094212 37 0 4.0 10.0 0.08 0.22 0.18 89 1014.1
20260505093712 37 0 4.0 14.0 0.08 0.22 0.18 89 1014.1
20260505093442 38 0 4.0 14.0 0.08 0.21 0.17 89 1014.1
20260505092710 38 0 4.0 11.0 0.09 0.21 0.17 89 1014.2
20260505092209 38 0 5.0 13.0 0.09 0.21 0.17 88 1014.1
20260505091706 39 0 4.0 13.0 0.07 0.19 0.16 88 1013.9
20260505091206 40 0 3.0 9.0 0.06 0.18 0.15 89 1013.8
20260505090705 40 0 3.0 11.0 0.06 0.18 0.14 88 1013.9
20260505090205 40 0 3.0 11.0 0.05 0.17 0.13 89 1013.9
20260505085702 41 0 3.0 11.0 0.04 0.16 0.12 89 1013.8
20260505085203 41 0 3.0 11.0 0.04 0.16 0.12 89 1013.8
20260505084703 41 0 3.0 10.0 0.03 0.15 0.11 89 1013.7
20260505084201 41 0 3.0 6.0 0.03 0.14 0.10 89 1013.5
20260505083701 41 0 3.0 8.0 0.02 0.13 0.10 89 1013.5
20260505083431 41 0 3.0 8.0 0.03 0.13 0.09 89 1013.4
20260505082701 42 0 3.0 7.0 0.03 0.12 0.08 88 1013.4
20260505082201 42 0 3.0 9.0 0.04 0.12 0.08 88 1013.4
20260505081930 42 0 3.0 9.0 0.04 0.12 0.08 89 1013.4
20260505081201 42 0 1.0 3.0 0.05 0.12 0.08 89 1013.4
20260505080701 42 0 2.0 5.0 0.05 0.12 0.08 89 1013.1
20260505080159 42 0 2.0 5.0 0.05 0.12 0.08 89 1013.0
20260505075929 42 0 1.0 4.0 0.05 0.12 0.08 89 1013.1
20260505075158 42 0 1.0 3.0 0.05 0.12 0.08 89 1013.1
20260505074658 42 0 1.0 3.0 0.05 0.12 0.08 89 1013.2
20260505074427 42 0 1.0 3.0 0.05 0.11 0.07 88 1013.1
20260505073656 42 0 2.0 3.0 0.04 0.10 0.07 88 1013.1
20260505073155 43 0 2.0 5.0 0.04 0.10 0.06 88 1013.2
20260505072653 43 0 2.0 5.0 0.03 0.09 0.05 87 1013.2
20260505072155 43 0 2.0 5.0 0.02 0.08 0.05 87 1013.4
20260505071652 43 0 1.0 5.0 0.03 0.08 0.04 87 1013.4
20260505071151 43 0 2.0 4.0 0.03 0.07 0.03 86 1013.4
20260505070647 44 0 2.0 11.0 0.03 0.07 0.03 86 1013.2
20260505070418 44 0 3.0 14.0 0.03 0.07 0.03 86 1013.2
20260505065646 44 0 2.0 14.0 0.03 0.07 0.03 85 1013.1
20260505065144 44 0 1.0 5.0 0.03 0.07 0.03 84 1013.1
20260505064913 44 0 1.0 4.0 0.03 0.07 0.03 83 1013.0
20260505064414 45 0 1.0 3.0 0.02 0.06 0.02 82 1013.0
20260505063914 45 0 1.0 5.0 0.02 0.06 0.02 82 1013.0
20260505063410 45 0 2.0 5.0 0.02 0.06 0.02 82 1013.0
20260505062908 45 0 2.0 7.0 0.02 0.06 0.02 82 1012.9
20260505062137 46 281 2.0 7.0 0.02 0.06 0.02 82 1012.9
20260505061643 47 0 5.0 16.0 0.00 0.04 0.00 78 1012.6
20260505061637 47 0 3.0 11.0 0.01 0.05 0.01 81 1012.8
20260505060637 47 0 6.0 16.0 0.00 0.04 0.00 77 1012.6
20260505060137 48 0 7.0 17.0 0.00 0.04 0.00 77 1012.4
20260505055637 49 0 7.0 17.0 0.00 0.04 0.04 76 1012.3
20260505055139 49 0 3.0 14.0 0.00 0.04 0.04 81 1012.2
20260505054637 49 0 1.0 4.0 0.00 0.04 0.04 88 1012.1
20260505054138 49 0 0.0 2.0 0.00 0.04 0.04 88 1012.0
20260505053637 49 0 0.0 2.0 0.00 0.04 0.04 88 1011.7
20260505053136 49 0 0.0 0.0 0.00 0.04 0.04 88 1011.7
20260505052636 49 0 0.0 0.0 0.00 0.04 0.04 88 1011.6
20260505052136 49 0 0.0 1.0 0.00 0.04 0.04 87 1011.6
20260505051906 49 0 0.0 1.0 0.00 0.04 0.04 87 1011.5
20260505051135 49 0 0.0 0.0 0.00 0.04 0.04 87 1011.4
20260505050635 49 0 0.0 1.0 0.00 0.04 0.04 87 1011.4
20260505050404 49 0 0.0 1.0 0.00 0.04 0.04 88 1011.5